Retour au catalogue

STARLINK-32540

ActifCommunicationsVLEO
NORAD 61723·PAYLOAD·🇺🇸 United States

Lancé Oct 30, 2024 depuis Cape Canaveral Space Force Station

Loading…

Prochains Passages (prochaines 24 heures)

TLE

FraisSource: CelesTrak SupGP

Époque: Sep 14, 2026, 21:01 UTC

1 61723C 24196S   26257.87618056  .00054924  00000+0  16230-2 0  2578
2 61723  53.1578 263.6518 0001237  89.8600 229.4561 15.34358428    18

Suivez STARLINK-32540 en temps réel avec AllMySat

Download on the App Store